Showing default

ANGELS, 44876

Orbit data source: Space-Track

ANGELS, 44876 is a payload satellite owned by CNES (FR) in SSO that was launched on Wed, 18 Dec 2019 UTC via a SOYUZ-ST-A launch vehicle from the French Guiana (FRGUI). Payload-class satellites include a variety of spacecraft equipped with specific instruments for various scientific and technological missions. These include communications satellites like Starlink; space stations such as the ISS; scientific satellites like the Hubble; Earth observation satellites from companies like Planet Labs, Umbra, and HawkEye 360; GPS; miniature CubeSats for education and research; and military/defense satellites.

Loading next visibility...
Identifier
44876, 2019-092D
Orbit
SSO
Country
Flag of FRFR
Related business
Manufacturer
Hemeria
Mission
Non-operational Civil Communications
Bus & Motor
CUBESAT 12U, Unknown motor
Mass
27 kg wet, 27 kg dry
Launch date (UTC)
2019-12-18 (6 years ago)
Launch vehicle
SOYUZ-ST-A
Launch site
French Guiana (FRGUI)
Object type
Payload
Rocket body
Debris
Shape & HBR
Box + 2 Pan, 1.0 m
Radar Cross Section
0.126 m², Medium (>0.1 m² and < 1m²)

Expand to show TLE details & history
Last TLE update: 11 hours ago

TLE from 11 hours ago
0 ANGELS
1 44876U 19092D   25295.54280450  .00052145  00000-0  80645-3 0  9994
2 44876  97.4403 138.0878 0005969  12.1700 347.9696 15.53902022325028
Epoch: 2025-10-22T13:01Z
TLE epoch observation values (Epoch: 2025-10-22T13:01:38.308Z)
Latitude
-0.00009°
Longitude
-88.53671°
Altitude
404.52 km
Speed
7.67 km/s
True Right ascension
09h 12m 21s
True Declination
0° 00' 00"
Sunlit
Object was in daylight at epoch
Visualization orbit readout
Latitude
Unknown
Longitude
Unknown
Altitude
Unknown
Speed
Unknown
Apparent Right ascension
Unknown
Apparent Declination
Unknown
Sunlit
N/A
Visualization observer readout
Local Sidereal Time
19:14:50
Azimuth
Unknown
Elevation
Unknown
Doppler factor
Unknown
Orbital elements
Apogee altitude
406.316 km
Perigee altitude
398.221 km
Semi-major axis
6,780.405 km
Eccentricity
0.0006
Inclination
97.4403°
RAAN
138.0878°
Arg. of periapsis
12.17°
True anomaly
347.95533°
Mean anomaly
347.9696°
Eccentric anomaly
347.96247°
Mean motion
3.8874 °/min
Orbital period
92.61 mins
BSTAR
0.00080645
Loading maneuver chart data...
Computing Atmospheric mass density...
Loading historical data...
Loading historical data...
Loading historical data...
Loading historical data...
Loading historical data...
Loading historical data...
Loading historical data...

Documentation

Showing up to 5 results
|